SCP
0 0 0 0 0 0 0 0 0 0 0 0 0 0 0 0 0 0 0 0 0 0 0 0 0 0 0 0 0 0 0 0 0 0 0 0 0 0 0 0 0 0 0 0
0 0 0 0 0 0 0 0 0 0 0 0 0 0 0 0 0 0 0 0 0 0 0 0 0 0 0 0 0 0 0 0 0 0 0 0 0 0 0 0 0 0 0 0
0 0 0 0 0 0 0 0 0 0 0 0 0 0 0 0 0 0 0 0 0 0 0 0 0 0 0 0 0 0 0 0 0 0 0 0 0 0 0 0 0 0 0 0
0 0 0 0 0 0 0 0 0 0 0 0 0 0 0 0 0 0 0 0 0 0 0 0 0 0 0 0 0 0 0 0 0 0 0 0 0 0 0 0 0 0 0 0
0 0 0 0 0 0 0 0 0 0 0 0 0 0 0 0 0 0 0 0 0 0 0 0 0 0 0 0 0 0 0 0 0 0 0 0 0 0 0 0 0 0 0 0
0 0 0 0 0 0 0 0 0 0 0 0 0 0 0 0 0 0 0 0 0 0 0 0 0 0 0 0 0 0 0 0 0 0 0 0 0 0 0 0 0 0 0 0
0 0 0 0 0 0 0 0 0 0 0 0 0 0 0 0 0 0 0 0 0 0 0 0 0 0 0 0 0 0 0 0 0 0 0 0 0 0 0 0 0 0 0 0
0 0 0 0 0 0 0 0 0 0 0 0 0 0 0 0 0 0 0 0 0 0 0 0 0 0 0 0 0 0 0 0 0 0 0 0 0 0 0 0 0 0 0 0
0 0 0 0 0 0 0 0 0 0 0 0 0 0 0 0 0 0 0 0 0 0 0 0 0 0 0 0 0 0 0 0 0 0 0 0 0 0 0 0 0 0 0 0
0 0 0 0 0 0 0 0 0 0 0 0 0 0 0 0 0 0 0 0 0 0 0 0 0 0 0 0 0 0 0 0 0 0 0 0 0 0 0 0 0 0 0 0
0 0 0 0 0 0 0 0 0 0 0 0 0 0 0 0 0 0 0 0 0 0 0 0 0 0 0 0 0 0 0 0 0 0 0 0 0 0 0 0 0 0 0 0
0 0 0 0 0 0 0 0 0 0 0 0 0 0 0 0 0 0 0 0 0 0 0 0 0 0 0 0 0 0 0 0 0 0 0 0 0 0 0 0 0 0 0 0
0 0 0 0 0 0 0 0 0 0 0 0 0 0 0 0 0 0 0 0 0 0 0 0 0 0 0 0 0 0 0 0 0 0 0 0 0 0 0 0 0 0 0 0
0 0 0 0 0 0 0 0 0 0 0 0 0 0 0 0 0 0 0 0 0 0 0 0 0 0 0 0 0 0 0 0 0 0 0 0 0 0 0 0 0 0 0 0
0 0 0 0 0 0 0 0 0 0 0 0 0 0 0 0 0 0 0 0 0 0 0 0 0 0 0 0 0 0 0 0 0 0 0 0 0 0 0 0 0 0 0 0
0 0 0 0 0 0 0 0 0 0 0 0 0 0 0 0 0 0 0 0 0 0 0 0 0 0 0 0 0 0 0 0 0 0 0 0 0 0 0 0 0 0 0 0
0 0 0 0 0 0 0 0 0 0 0 0 0 0 0 0 0 0 0 0 0 0 0 0 0 0 0 0 0 0 0 0 0 0 0 0 0 0 0 0 0 0 0 0
0 0 0 0 0 0 0 0 0 0 0 0 0 0 0 0 0 0 0 0 0 0 0 0 0 0 0 0 0 0 0 0 0 0 0 0 0 0 0 0 0 0 0 0
0 0 0 0 0 0 0 0 0 0 0 0 0 0 0 0 0 0 0 0 0 0 0 0 0 0 0 0 0 0 0 0 0 0 0 0 0 0 0 0 0 0 0 0
0 0 0 0 0 0 0 0 0 0 0 0 0 0 0 0 0 0 0 0 0 0 0 0 0 0 0 0 0 0 0 0 0 0 0 0 0 0 0 0 0 0 0 0
0 0 0 0 0 0 0 0 0 0 0 0 0 0 0 0 0 0 0 0 0 0 0 0 0 0 0 0 0 0 0 0 0 0 0 0 0 0 0 0 0 0 0 0
0 0 0 0 0 0 0 0 0 0 0 0 0 0 0 0 0 0 0 0 0 0 0 0 0 0 0 0 0 0 0 0 0 0 0 0 0 0 0 0 0 0 0 0
0 0 0 0 0 0 -0 0 0 0 0 0 0 0 0 0 0 0 0 0 0 0 0 0 0 0 0 0 0 0 0 0 0 0 0 0 0 0 0 0 0 0 0 0
-0 0 0 0 0 -0 0 -0 0 0 0 0 0 0 0 0 0 0 0 0 0 -0 0 0 0 0 0 0 0 0 0 0 0 0 0 0 0 0 0 0 0 0 0 0
-0 -0 -0 0 0 -0 -0 -0 -0 -0 0 0 0 -0 -0 -0 0 0 -0 -0 -0 0 0 0 0 0 0 0 0 0 0 0 0 0 0 0 0 0 0 0 0 0 0 0
0 -0 0 0 -0 0 -0 -0 -0 -0 -0 -0 -0 -0 -0 0 0 0 0 0 0 0 0 0 0 0 0 0 0 0 0 0 0 0 0 0 0 0 0 0 0 0 0 0
Wind_Speed_500mb
10 7 27 17 15 7 28 11 16 6 7 16 15 20 13 24 31 28 28 30 29 28 25 20 17 13 11 10 12 14 10 13 26 24 14 13 11 8 6 6 10 14 17 23
6 29 7 9 6 7 28 34 23 6 14 19 15 15 12 17 12 18 22 25 26 25 24 25 25 22 21 21 19 16 16 20 26 26 16 7 2 4 9 9 12 12 13 11
12 2 20 15 9 13 15 34 27 22 10 12 9 5 3 7 22 22 20 23 25 24 27 31 31 31 31 31 31 29 28 25 25 21 16 9 6 7 7 5 9 12 13 15
13 8 17 12 25 16 19 11 25 33 30 7 17 7 11 8 7 9 18 19 23 26 29 34 38 38 39 41 38 37 36 31 27 22 17 15 16 16 18 16 16 15 17 20
10 10 13 23 34 15 10 18 28 32 22 14 22 6 7 23 12 12 22 27 26 29 31 36 38 40 41 38 39 38 37 34 31 26 22 18 17 18 15 12 13 15 20 24
14 4 13 14 8 17 13 18 17 10 4 12 24 20 9 21 37 17 32 38 35 34 34 35 36 37 36 34 33 33 30 31 25 20 18 14 13 12 10 12 17 23 27 29
4 9 4 8 10 7 14 23 6 10 9 9 10 18 11 25 18 35 41 44 46 40 35 35 39 37 35 31 27 25 22 20 19 15 13 14 15 17 20 24 26 29 31 34
10 11 15 10 12 13 30 25 11 13 11 9 5 15 7 6 29 46 50 54 50 48 43 41 37 33 30 27 22 18 15 14 15 16 17 19 21 22 24 28 30 33 36 38
14 8 3 4 4 10 13 19 7 10 9 7 7 7 4 7 21 41 52 57 54 49 43 40 36 32 26 21 17 13 11 12 13 17 19 21 23 25 26 28 30 31 33 34
3 5 4 3 5 8 6 14 5 3 15 9 5 7 8 19 24 26 39 49 55 49 45 41 34 29 24 16 11 9 10 13 16 18 19 22 25 28 30 31 33 33 33 33
4 6 6 7 9 18 5 9 8 4 2 9 7 11 11 33 34 34 41 50 58 52 47 41 34 26 17 11 8 9 12 15 17 20 23 26 28 29 30 30 31 31 30 29
11 3 3 6 3 2 8 10 8 5 8 3 1 6 7 20 38 46 43 57 54 48 44 38 32 24 15 5 5 9 13 15 18 21 23 24 25 27 28 28 28 29 29 26
8 6 6 1 6 4 5 11 12 13 7 4 5 6 11 31 34 44 54 60 57 49 44 39 31 21 11 2 6 11 14 16 18 20 21 23 26 27 28 29 29 25 22 21
3 3 2 7 2 2 7 8 11 11 8 10 9 6 3 17 28 42 50 62 56 52 48 40 31 21 10 6 10 14 15 16 18 20 22 24 26 28 29 28 24 21 19 20
3 7 5 5 3 5 6 9 13 8 9 12 13 17 26 33 34 50 61 60 57 54 49 41 32 21 13 11 16 17 17 18 21 22 25 27 30 31 29 25 21 18 18 21
1 3 3 4 9 6 5 7 7 9 9 10 11 6 8 27 42 54 66 65 62 58 49 40 30 22 17 17 21 21 21 22 23 25 27 30 33 34 30 24 21 20 21 24
3 8 5 3 6 4 6 7 6 5 6 15 11 12 27 15 41 58 67 68 63 55 48 40 29 22 20 22 25 23 25 26 26 28 32 35 36 35 31 27 24 23 24 26
2 2 6 5 5 3 6 5 1 3 2 6 5 9 27 34 37 55 65 63 54 48 42 36 30 27 25 26 27 27 28 29 31 32 35 37 36 35 32 31 30 29 29 30
2 6 7 8 4 8 3 7 8 6 8 8 9 11 21 40 39 28 49 48 41 38 33 30 30 29 28 30 30 30 31 32 33 35 38 39 38 35 33 33 32 33 34 36
8 13 7 7 10 7 6 3 4 4 8 16 21 26 41 46 13 9 45 40 36 32 34 34 32 31 33 32 32 33 34 36 36 38 39 39 38 35 34 35 37 39 39 43
7 7 7 3 2 13 11 7 6 12 10 12 32 52 59 20 18 37 47 39 33 29 30 32 34 35 33 34 35 36 37 37 38 41 41 41 40 38 39 41 41 42 44 47
6 7 3 4 7 10 16 7 14 7 4 12 34 51 62 32 27 33 42 38 31 26 28 32 34 32 35 36 38 38 38 37 42 43 43 42 42 41 42 43 43 45 47 50
4 9 6 13 10 5 32 8 22 5 4 13 36 48 55 40 36 40 37 30 23 21 25 31 33 35 37 37 39 40 37 43 45 44 42 43 42 41 42 44 45 48 50 52
7 7 3 6 4 23 21 39 19 13 7 10 28 43 50 44 40 37 30 23 21 24 29 30 34 38 39 37 40 40 43 46 47 46 44 43 42 42 43 45 47 49 50 52
7 14 6 10 19 18 29 38 40 25 17 14 24 35 42 42 42 37 29 22 23 27 30 34 38 40 38 37 38 41 47 49 49 49 47 46 45 45 44 45 46 48 49 51
25 15 10 12 22 19 11 40 39 44 38 26 27 33 41 45 43 37 32 30 34 37 35 39 40 38 31 36 40 42 48 51 52 55 52 49 48 47 45 46 47 49 49 49
Wind_Direction_500mb
191 171 208 181 221 151 183 197 105 91 155 71 72 85 66 81 90 86 99 102 96 91 93 106 108 112 126 157 189 204 192 173 173 183 205 222 245 258 304 338 338 324 332 324
161 228 179 161 221 185 169 191 201 91 69 86 92 71 63 69 71 98 105 98 99 104 105 104 105 106 109 108 110 124 136 145 165 173 164 184 233 285 306 335 315 324 330 330
216 286 174 187 188 193 191 187 177 182 138 41 112 31 105 63 99 101 100 108 113 111 107 107 109 106 106 107 105 107 116 131 143 138 135 163 197 165 138 89 76 54 32 22
240 257 191 175 214 193 203 173 151 144 165 177 166 219 235 173 142 123 126 120 121 121 116 111 109 108 104 101 104 106 108 114 122 137 159 162 139 125 86 64 45 29 18 8
220 189 187 211 207 183 219 142 152 165 160 127 192 205 222 165 197 195 163 146 138 128 124 118 115 110 106 107 108 107 108 109 109 112 111 105 92 80 66 48 22 5 355 351
224 213 181 195 162 181 146 85 48 54 90 210 184 194 207 191 203 161 166 158 148 139 131 126 120 118 118 112 107 105 105 103 100 95 91 83 70 56 27 6 352 347 345 344
233 207 250 154 141 155 142 140 132 196 205 218 176 203 246 204 192 177 162 164 155 148 147 140 135 132 123 118 108 100 93 92 83 72 55 38 24 7 353 346 345 340 340 339
190 196 178 180 203 193 190 175 163 186 183 151 113 210 239 284 173 164 166 162 158 156 159 151 141 133 124 117 110 98 80 63 45 30 20 6 354 348 347 346 345 344 345 345
180 250 356 202 177 168 175 202 100 89 1 85 184 319 298 108 127 141 151 162 163 161 159 151 145 140 130 123 112 86 62 40 20 9 4 355 349 346 347 345 344 342 340 337
213 219 237 212 131 52 213 132 144 278 158 193 220 254 227 169 164 157 161 163 165 163 160 156 152 144 135 125 97 58 27 11 3 357 349 347 345 344 342 340 335 333 333 333
195 209 175 127 192 171 182 165 142 91 316 156 150 245 200 182 178 169 167 166 167 167 164 160 155 147 139 119 70 17 1 358 352 348 346 342 336 332 328 326 325 324 327 328
188 191 240 175 318 91 158 153 143 183 181 34 57 271 354 187 171 165 164 170 171 171 168 165 161 158 152 123 26 354 348 344 339 335 332 327 327 322 320 320 321 321 322 328
145 220 139 336 10 20 207 162 145 122 33 165 118 254 348 156 155 170 166 174 172 172 171 172 173 173 172 181 331 328 326 325 324 323 321 321 320 319 319 318 317 322 326 334
223 90 182 191 157 19 179 165 154 142 132 157 243 170 192 166 167 166 169 175 174 177 180 180 184 188 204 275 311 312 308 310 314 315 315 316 317 314 315 315 315 318 324 334
86 132 120 355 77 301 212 157 148 129 158 157 205 189 197 186 175 170 172 174 176 182 186 190 192 200 228 278 298 295 298 307 308 309 314 314 312 313 313 311 308 310 320 330
127 117 110 61 4 264 112 100 119 124 121 83 119 252 177 166 157 164 175 178 183 187 192 193 199 214 240 281 292 292 294 297 301 305 310 310 312 313 309 299 294 302 316 321
173 179 144 101 329 354 64 224 203 165 166 144 167 208 152 149 175 177 179 184 188 193 194 199 213 228 256 284 292 289 290 293 298 305 308 310 309 304 298 290 286 291 296 306
119 66 43 104 18 91 255 315 251 278 56 162 113 174 180 181 176 180 187 188 193 196 199 210 220 237 259 288 288 283 285 289 293 299 304 305 306 301 290 281 275 278 287 300
275 155 76 126 160 287 326 196 170 149 267 184 143 115 130 140 153 173 190 197 200 206 216 223 230 243 269 284 280 279 280 285 294 301 304 304 299 291 279 271 273 282 293 304
12 44 94 47 106 182 263 270 185 132 315 187 156 153 148 147 160 227 188 192 197 207 216 222 235 252 273 279 278 280 282 286 293 297 301 299 296 289 284 282 282 289 296 302
5 5 108 121 161 283 239 201 153 95 235 184 181 171 164 173 190 192 187 193 202 214 217 229 246 265 275 280 280 282 279 286 294 301 302 300 296 293 289 284 283 288 293 299
170 121 210 87 58 296 169 118 167 211 226 213 188 185 180 176 167 176 188 195 199 213 233 248 259 268 278 278 280 279 283 291 297 299 297 298 297 292 287 284 283 289 296 301
280 185 191 183 214 243 194 207 212 249 247 212 194 191 188 179 174 173 176 188 207 234 253 257 259 271 277 278 281 282 289 289 293 295 297 295 292 290 286 284 286 292 297 301
263 200 217 39 227 228 226 221 213 222 220 194 192 191 192 194 184 181 185 202 232 255 263 260 266 278 280 281 279 283 287 291 293 292 292 291 291 288 286 285 288 292 297 299
209 149 188 275 278 284 249 226 223 220 204 198 197 202 205 202 198 201 210 235 260 272 266 268 276 281 280 277 281 290 292 293 292 290 290 289 287 284 282 282 285 292 295 297
188 184 176 217 223 201 236 226 213 215 216 213 206 202 207 214 215 221 238 264 275 277 268 271 276 276 281 282 287 293 294 294 293 289 287 286 282 281 280 282 287 292 295 298
Wind_Speed_850mb
10 7 27 17 15 7 28 11 16 6 7 16 15 20 13 24 31 28 28 30 29 28 25 20 17 13 11 10 12 14 10 13 26 24 14 13 11 8 6 6 10 14 17 23
6 29 7 9 6 7 28 34 23 6 14 19 15 15 12 17 12 18 22 25 26 25 24 25 25 22 21 21 19 16 16 20 26 26 16 7 2 4 9 9 12 12 13 11
12 2 20 15 9 13 15 34 27 22 10 12 9 5 3 7 22 22 20 23 25 24 27 31 31 31 31 31 31 29 28 25 25 21 16 9 6 7 7 5 9 12 13 15
13 8 17 12 25 16 19 11 25 33 30 7 17 7 11 8 7 9 18 19 23 26 29 34 38 38 39 41 38 37 36 31 27 22 17 15 16 16 18 16 16 15 17 20
10 10 13 23 34 15 10 18 28 32 22 14 22 6 7 23 12 12 22 27 26 29 31 36 38 40 41 38 39 38 37 34 31 26 22 18 17 18 15 12 13 15 20 24
14 4 13 14 8 17 13 18 17 10 4 12 24 20 9 21 37 17 32 38 35 34 34 35 36 37 36 34 33 33 30 31 25 20 18 14 13 12 10 12 17 23 27 29
4 9 4 8 10 7 14 23 6 10 9 9 10 18 11 25 18 35 41 44 46 40 35 35 39 37 35 31 27 25 22 20 19 15 13 14 15 17 20 24 26 29 31 34
10 11 15 10 12 13 30 25 11 13 11 9 5 15 7 6 29 46 50 54 50 48 43 41 37 33 30 27 22 18 15 14 15 16 17 19 21 22 24 28 30 33 36 38
14 8 3 4 4 10 13 19 7 10 9 7 7 7 4 7 21 41 52 57 54 49 43 40 36 32 26 21 17 13 11 12 13 17 19 21 23 25 26 28 30 31 33 34
3 5 4 3 5 8 6 14 5 3 15 9 5 7 8 19 24 26 39 49 55 49 45 41 34 29 24 16 11 9 10 13 16 18 19 22 25 28 30 31 33 33 33 33
4 6 6 7 9 18 5 9 8 4 2 9 7 11 11 33 34 34 41 50 58 52 47 41 34 26 17 11 8 9 12 15 17 20 23 26 28 29 30 30 31 31 30 29
11 3 3 6 3 2 8 10 8 5 8 3 1 6 7 20 38 46 43 57 54 48 44 38 32 24 15 5 5 9 13 15 18 21 23 24 25 27 28 28 28 29 29 26
8 6 6 1 6 4 5 11 12 13 7 4 5 6 11 31 34 44 54 60 57 49 44 39 31 21 11 2 6 11 14 16 18 20 21 23 26 27 28 29 29 25 22 21
3 3 2 7 2 2 7 8 11 11 8 10 9 6 3 17 28 42 50 62 56 52 48 40 31 21 10 6 10 14 15 16 18 20 22 24 26 28 29 28 24 21 19 20
3 7 5 5 3 5 6 9 13 8 9 12 13 17 26 33 34 50 61 60 57 54 49 41 32 21 13 11 16 17 17 18 21 22 25 27 30 31 29 25 21 18 18 21
1 3 3 4 9 6 5 7 7 9 9 10 11 6 8 27 42 54 66 65 62 58 49 40 30 22 17 17 21 21 21 22 23 25 27 30 33 34 30 24 21 20 21 24
3 8 5 3 6 4 6 7 6 5 6 15 11 12 27 15 41 58 67 68 63 55 48 40 29 22 20 22 25 23 25 26 26 28 32 35 36 35 31 27 24 23 24 26
2 2 6 5 5 3 6 5 1 3 2 6 5 9 27 34 37 55 65 63 54 48 42 36 30 27 25 26 27 27 28 29 31 32 35 37 36 35 32 31 30 29 29 30
2 6 7 8 4 8 3 7 8 6 8 8 9 11 21 40 39 28 49 48 41 38 33 30 30 29 28 30 30 30 31 32 33 35 38 39 38 35 33 33 32 33 34 36
8 13 7 7 10 7 6 3 4 4 8 16 21 26 41 46 13 9 45 40 36 32 34 34 32 31 33 32 32 33 34 36 36 38 39 39 38 35 34 35 37 39 39 43
7 7 7 3 2 13 11 7 6 12 10 12 32 52 59 20 18 37 47 39 33 29 30 32 34 35 33 34 35 36 37 37 38 41 41 41 40 38 39 41 41 42 44 47
6 7 3 4 7 10 16 7 14 7 4 12 34 51 62 32 27 33 42 38 31 26 28 32 34 32 35 36 38 38 38 37 42 43 43 42 42 41 42 43 43 45 47 50
4 9 6 13 10 5 32 8 22 5 4 13 36 48 55 40 36 40 37 30 23 21 25 31 33 35 37 37 39 40 37 43 45 44 42 43 42 41 42 44 45 48 50 52
7 7 3 6 4 23 21 39 19 13 7 10 28 43 50 44 40 37 30 23 21 24 29 30 34 38 39 37 40 40 43 46 47 46 44 43 42 42 43 45 47 49 50 52
7 14 6 10 19 18 29 38 40 25 17 14 24 35 42 42 42 37 29 22 23 27 30 34 38 40 38 37 38 41 47 49 49 49 47 46 45 45 44 45 46 48 49 51
25 15 10 12 22 19 11 40 39 44 38 26 27 33 41 45 43 37 32 30 34 37 35 39 40 38 31 36 40 42 48 51 52 55 52 49 48 47 45 46 47 49 49 49
Wind_Direction_850mb
191 171 208 181 221 151 183 197 105 91 155 71 72 85 66 81 90 86 99 102 96 91 93 106 108 112 126 157 189 204 192 173 173 183 205 222 245 258 304 338 338 324 332 324
161 228 179 161 221 185 169 191 201 91 69 86 92 71 63 69 71 98 105 98 99 104 105 104 105 106 109 108 110 124 136 145 165 173 164 184 233 285 306 335 315 324 330 330
216 286 174 187 188 193 191 187 177 182 138 41 112 31 105 63 99 101 100 108 113 111 107 107 109 106 106 107 105 107 116 131 143 138 135 163 197 165 138 89 76 54 32 22
240 257 191 175 214 193 203 173 151 144 165 177 166 219 235 173 142 123 126 120 121 121 116 111 109 108 104 101 104 106 108 114 122 137 159 162 139 125 86 64 45 29 18 8
220 189 187 211 207 183 219 142 152 165 160 127 192 205 222 165 197 195 163 146 138 128 124 118 115 110 106 107 108 107 108 109 109 112 111 105 92 80 66 48 22 5 355 351
224 213 181 195 162 181 146 85 48 54 90 210 184 194 207 191 203 161 166 158 148 139 131 126 120 118 118 112 107 105 105 103 100 95 91 83 70 56 27 6 352 347 345 344
233 207 250 154 141 155 142 140 132 196 205 218 176 203 246 204 192 177 162 164 155 148 147 140 135 132 123 118 108 100 93 92 83 72 55 38 24 7 353 346 345 340 340 339
190 196 178 180 203 193 190 175 163 186 183 151 113 210 239 284 173 164 166 162 158 156 159 151 141 133 124 117 110 98 80 63 45 30 20 6 354 348 347 346 345 344 345 345
180 250 356 202 177 168 175 202 100 89 1 85 184 319 298 108 127 141 151 162 163 161 159 151 145 140 130 123 112 86 62 40 20 9 4 355 349 346 347 345 344 342 340 337
213 219 237 212 131 52 213 132 144 278 158 193 220 254 227 169 164 157 161 163 165 163 160 156 152 144 135 125 97 58 27 11 3 357 349 347 345 344 342 340 335 333 333 333
195 209 175 127 192 171 182 165 142 91 316 156 150 245 200 182 178 169 167 166 167 167 164 160 155 147 139 119 70 17 1 358 352 348 346 342 336 332 328 326 325 324 327 328
188 191 240 175 318 91 158 153 143 183 181 34 57 271 354 187 171 165 164 170 171 171 168 165 161 158 152 123 26 354 348 344 339 335 332 327 327 322 320 320 321 321 322 328
145 220 139 336 10 20 207 162 145 122 33 165 118 254 348 156 155 170 166 174 172 172 171 172 173 173 172 181 331 328 326 325 324 323 321 321 320 319 319 318 317 322 326 334
223 90 182 191 157 19 179 165 154 142 132 157 243 170 192 166 167 166 169 175 174 177 180 180 184 188 204 275 311 312 308 310 314 315 315 316 317 314 315 315 315 318 324 334
86 132 120 355 77 301 212 157 148 129 158 157 205 189 197 186 175 170 172 174 176 182 186 190 192 200 228 278 298 295 298 307 308 309 314 314 312 313 313 311 308 310 320 330
127 117 110 61 4 264 112 100 119 124 121 83 119 252 177 166 157 164 175 178 183 187 192 193 199 214 240 281 292 292 294 297 301 305 310 310 312 313 309 299 294 302 316 321
173 179 144 101 329 354 64 224 203 165 166 144 167 208 152 149 175 177 179 184 188 193 194 199 213 228 256 284 292 289 290 293 298 305 308 310 309 304 298 290 286 291 296 306
119 66 43 104 18 91 255 315 251 278 56 162 113 174 180 181 176 180 187 188 193 196 199 210 220 237 259 288 288 283 285 289 293 299 304 305 306 301 290 281 275 278 287 300
275 155 76 126 160 287 326 196 170 149 267 184 143 115 130 140 153 173 190 197 200 206 216 223 230 243 269 284 280 279 280 285 294 301 304 304 299 291 279 271 273 282 293 304
12 44 94 47 106 182 263 270 185 132 315 187 156 153 148 147 160 227 188 192 197 207 216 222 235 252 273 279 278 280 282 286 293 297 301 299 296 289 284 282 282 289 296 302
5 5 108 121 161 283 239 201 153 95 235 184 181 171 164 173 190 192 187 193 202 214 217 229 246 265 275 280 280 282 279 286 294 301 302 300 296 293 289 284 283 288 293 299
170 121 210 87 58 296 169 118 167 211 226 213 188 185 180 176 167 176 188 195 199 213 233 248 259 268 278 278 280 279 283 291 297 299 297 298 297 292 287 284 283 289 296 301
280 185 191 183 214 243 194 207 212 249 247 212 194 191 188 179 174 173 176 188 207 234 253 257 259 271 277 278 281 282 289 289 293 295 297 295 292 290 286 284 286 292 297 301
263 200 217 39 227 228 226 221 213 222 220 194 192 191 192 194 184 181 185 202 232 255 263 260 266 278 280 281 279 283 287 291 293 292 292 291 291 288 286 285 288 292 297 299
209 149 188 275 278 284 249 226 223 220 204 198 197 202 205 202 198 201 210 235 260 272 266 268 276 281 280 277 281 290 292 293 292 290 290 289 287 284 282 282 285 292 295 297
188 184 176 217 223 201 236 226 213 215 216 213 206 202 207 214 215 221 238 264 275 277 268 271 276 276 281 282 287 293 294 294 293 289 287 286 282 281 280 282 287 292 295 298